Hourly Weather Salta

Today, 1 October, Thursday

Time Temperature Precipitation Wind Pressure Humidity
00:00 +24°C° 0 mm 1 mps 648 mmHg 38%
01:00 +23°C° 0 mm 1 mps 648 mmHg 37%
02:00 +23°C° 0 mm 1 mps 647 mmHg 37%
03:00 +23°C° 0 mm 2 mps 648 mmHg 34%
04:00 +23°C° 0 mm 2 mps 648 mmHg 32%
05:00 +21°C° 0 mm 2 mps 648 mmHg 29%
06:00 +25°C° 0 mm 2 mps 649 mmHg 26%
07:00 +27°C° 0 mm 1 mps 650 mmHg 23%
08:00 +29°C° 0 mm 1 mps 652 mmHg 21%
09:00 +31°C° 0 mm 2 mps 652 mmHg 20%
10:00 +34°C° 0 mm 2 mps 652 mmHg 19%
11:00 +36°C° 0 mm 3 mps 652 mmHg 19%
12:00 +36°C° 0 mm 4 mps 651 mmHg 19%
13:00 +36°C° 0 mm 5 mps 650 mmHg 19%
14:00 +36°C° 0 mm 6 mps 650 mmHg 19%
15:00 +34°C° 0 mm 5 mps 649 mmHg 25%
16:00 +32°C° 0 mm 5 mps 648 mmHg 30%
17:00 +29°C° 0 mm 4 mps 648 mmHg 35%
18:00 +27°C° 0 mm 3 mps 648 mmHg 42%
19:00 +24°C° 0 mm 2 mps 648 mmHg 49%
20:00 +22°C° 0 mm 1 mps 648 mmHg 56%
21:00 +21°C° 0 mm 1 mps 649 mmHg 57%
22:00 +21°C° 0 mm 1 mps 649 mmHg 59%
23:00 +18°C° 0 mm 0 mps 649 mmHg 60%

Tomorrow, 2 October, Friday

Time Temperature Precipitation Wind Pressure Humidity
00:00 +19°C° 0 mm 1 mps 649 mmHg 63%
01:00 +18°C° 0 mm 1 mps 649 mmHg 66%
02:00 +18°C° 0 mm 1 mps 649 mmHg 68%
03:00 +16°C° 0 mm 1 mps 649 mmHg 69%
04:00 +15°C° 0 mm 1 mps 649 mmHg 70%
05:00 +14°C° 0 mm 1 mps 649 mmHg 70%
06:00 +16°C° 0 mm 1 mps 650 mmHg 64%
07:00 +19°C° 0 mm 1 mps 651 mmHg 58%
08:00 +20°C° 0 mm 1 mps 652 mmHg 52%
09:00 +21°C° 0 mm 2 mps 652 mmHg 47%
10:00 +25°C° 0 mm 2 mps 652 mmHg 42%
11:00 +27°C° 0 mm 3 mps 652 mmHg 37%
12:00 +27°C° 0 mm 3 mps 651 mmHg 36%
13:00 +28°C° 0 mm 4 mps 651 mmHg 34%
14:00 +29°C° 0 mm 4 mps 650 mmHg 33%
15:00 +28°C° 0 mm 4 mps 650 mmHg 36%
16:00 +27°C° 0 mm 4 mps 649 mmHg 39%
17:00 +25°C° 0 mm 4 mps 649 mmHg 42%
18:00 +22°C° 0 mm 3 mps 649 mmHg 51%
19:00 +19°C° 0 mm 3 mps 650 mmHg 60%
20:00 +17°C° 0 mm 2 mps 650 mmHg 69%
21:00 +16°C° 0 mm 1 mps 650 mmHg 72%
22:00 +15°C° 0 mm 1 mps 650 mmHg 75%
23:00 +14°C° 0 mm 1 mps 651 mmHg 78%

Day after tomorrow, 3 October, Saturday

Time Temperature Precipitation Wind Pressure Humidity
00:00 +14°C° 0 mm 1 mps 651 mmHg 79%
01:00 +13°C° 0 mm 1 mps 651 mmHg 80%
02:00 +12°C° 0 mm 0 mps 651 mmHg 81%
03:00 +12°C° 0 mm 0 mps 651 mmHg 80%
04:00 +12°C° 0 mm 0 mps 651 mmHg 79%
05:00 +12°C° 0 mm 0 mps 652 mmHg 78%
06:00 +14°C° 0 mm 1 mps 652 mmHg 74%
07:00 +15°C° 0 mm 1 mps 653 mmHg 69%
08:00 +16°C° 0 mm 1 mps 654 mmHg 65%
09:00 +17°C° 0 mm 2 mps 653 mmHg 63%
10:00 +18°C° 0 mm 2 mps 653 mmHg 60%
11:00 +19°C° 0 mm 2 mps 653 mmHg 58%
12:00 +19°C° 0 mm 3 mps 653 mmHg 55%
13:00 +20°C° 0 mm 3 mps 652 mmHg 53%
14:00 +21°C° 0 mm 3 mps 652 mmHg 50%
15:00 +20°C° 0 mm 3 mps 651 mmHg 53%
16:00 +19°C° 0 mm 3 mps 650 mmHg 57%
17:00 +18°C° 0 mm 3 mps 650 mmHg 60%
18:00 +16°C° 0 mm 2 mps 650 mmHg 68%
19:00 +15°C° 0 mm 2 mps 650 mmHg 75%
20:00 +13°C° 0 mm 1 mps 651 mmHg 83%
21:00 +13°C° 0 mm 1 mps 651 mmHg 82%
22:00 +12°C° 0 mm 1 mps 651 mmHg 82%
23:00 +12°C° 0 mm 1 mps 652 mmHg 82%

4 October, Sunday

Time Temperature Precipitation Wind Pressure Humidity
00:00 +12°C° 0 mm 1 mps 651 mmHg 82%
01:00 +12°C° 0 mm 1 mps 651 mmHg 81%
02:00 +12°C° 0 mm 1 mps 651 mmHg 81%
03:00 +12°C° 0 mm 1 mps 651 mmHg 80%
04:00 +12°C° 0 mm 1 mps 651 mmHg 79%
05:00 +12°C° 0 mm 1 mps 651 mmHg 78%
06:00 +13°C° 0 mm 1 mps 651 mmHg 72%
07:00 +15°C° 0 mm 1 mps 652 mmHg 67%
08:00 +16°C° 0 mm 1 mps 652 mmHg 62%
09:00 +18°C° 0 mm 2 mps 652 mmHg 55%
10:00 +20°C° 0 mm 2 mps 652 mmHg 48%
11:00 +22°C° 0 mm 3 mps 652 mmHg 42%
12:00 +24°C° 0 mm 3 mps 651 mmHg 39%
13:00 +26°C° 0 mm 3 mps 650 mmHg 37%
14:00 +27°C° 0 mm 3 mps 650 mmHg 35%
15:00 +26°C° 0 mm 3 mps 649 mmHg 37%
16:00 +25°C° 0 mm 3 mps 649 mmHg 39%
17:00 +25°C° 0 mm 3 mps 648 mmHg 41%
18:00 +21°C° 0 mm 2 mps 648 mmHg 50%
19:00 +18°C° 0 mm 2 mps 648 mmHg 59%
20:00 +15°C° 0 mm 1 mps 648 mmHg 68%
21:00 +15°C° 0 mm 1 mps 648 mmHg 71%
22:00 +14°C° 0 mm 1 mps 648 mmHg 74%
23:00 +13°C° 0 mm 1 mps 649 mmHg 77%

5 October, Monday

Time Temperature Precipitation Wind Pressure Humidity
00:00 +12°C° 0 mm 0 mps 649 mmHg 79%
01:00 +11°C° 0 mm 0 mps 649 mmHg 81%
02:00 +11°C° 0 mm 0 mps 649 mmHg 83%
03:00 +11°C° 0 mm 0 mps 649 mmHg 85%
04:00 +10°C° 0 mm 0 mps 649 mmHg 86%
05:00 +10°C° 0 mm 0 mps 650 mmHg 88%
06:00 +13°C° 0 mm 1 mps 651 mmHg 79%
07:00 +15°C° 0 mm 1 mps 652 mmHg 71%
08:00 +18°C° 0 mm 1 mps 653 mmHg 62%
09:00 +18°C° 0 mm 2 mps 652 mmHg 57%
10:00 +19°C° 0 mm 2 mps 652 mmHg 53%
11:00 +21°C° 0 mm 3 mps 652 mmHg 48%
12:00 +22°C° 0 mm 3 mps 652 mmHg 46%
13:00 +24°C° 0 mm 3 mps 651 mmHg 43%
14:00 +25°C° 0 mm 3 mps 650 mmHg 41%
15:00 +24°C° 0 mm 3 mps 650 mmHg 42%
16:00 +24°C° 0 mm 3 mps 649 mmHg 44%
17:00 +22°C° 0 mm 3 mps 649 mmHg 45%
18:00 +20°C° 0 mm 2 mps 648 mmHg 52%
19:00 +19°C° 0 mm 1 mps 648 mmHg 59%
20:00 +16°C° 0 mm 1 mps 648 mmHg 65%
21:00 +16°C° 0 mm 1 mps 648 mmHg 67%
22:00 +16°C° 0 mm 1 mps 649 mmHg 68%
23:00 +15°C° 0 mm 1 mps 649 mmHg 69%

6 October, Tuesday

Time Temperature Precipitation Wind Pressure Humidity
00:00 +14°C° 0 mm 0 mps 648 mmHg 73%
01:00 +13°C° 0 mm 0 mps 648 mmHg 78%
02:00 +12°C° 0 mm 0 mps 647 mmHg 82%
03:00 +12°C° 0 mm 0 mps 647 mmHg 83%
04:00 +11°C° 0 mm 0 mps 647 mmHg 84%
05:00 +11°C° 0 mm 0 mps 647 mmHg 85%
06:00 +13°C° 0 mm 0 mps 648 mmHg 75%
07:00 +16°C° 0 mm 0 mps 649 mmHg 65%
08:00 +20°C° 0 mm 1 mps 650 mmHg 55%
09:00 +22°C° 0 mm 1 mps 650 mmHg 50%
10:00 +24°C° 0 mm 2 mps 650 mmHg 44%
11:00 +26°C° 0 mm 3 mps 650 mmHg 39%
12:00 +27°C° 0 mm 3 mps 650 mmHg 36%
13:00 +28°C° 0 mm 3 mps 649 mmHg 34%
14:00 +29°C° 0 mm 3 mps 648 mmHg 32%
15:00 +29°C° 0 mm 3 mps 648 mmHg 33%
16:00 +28°C° 0 mm 3 mps 648 mmHg 34%
17:00 +28°C° 0 mm 3 mps 648 mmHg 34%
18:00 +25°C° 0 mm 2 mps 647 mmHg 43%
19:00 +22°C° 0 mm 1 mps 647 mmHg 51%
20:00 +18°C° 0 mm 0 mps 647 mmHg 59%
21:00 +17°C° 0 mm 0 mps 648 mmHg 61%
22:00 +19°C° 0 mm 1 mps 648 mmHg 63%
23:00 +18°C° 0 mm 1 mps 648 mmHg 65%
Show more

We Need Your Consent

Meteoprog and our Service Providers may store and access personal data such as cookies, device identifiers or other similar technologies on your device and process such data to personalise content and ads, as well as provide social media features and to analyse the traffic.

  • Store and/or access information on your device

    Cookies, device identifiers or other information can be stored or accessed on your device for the purposes indicated above.

  • Personalised ads and content, ad and content measurement, audience insights, and products development

    Ads and content can be personalised based on a profile. More data can be added to better personalise ads and content. Ad and content performance can be measured. Insights about the audience who saw the ads and content can be derived. Such data can be used to develop or improve user’s experience, systems and software.

By clicking ‘I Agree’ you will allow the use of indicated cookies, device identifiers, web beacons or other similar technologies. Your settings can be changed in the browser on your device.

For certain purposes, legitimate interests may be relied on, rather than consent. You can read more about this in our Privacy and Cookie Policy.